Galena, AK

6:52 AM AKDT on June 29, 2017 (GMT -0800)
Pitka

Weather History for PAGA - December, 2013

Change the Weather History Date:

Sunday, December 29, 2013

  Actual Average Record
Temperature  
Mean Temperature 9 °F -  
Max Temperature 12 °F 3 °F 38 °F (1967)
Min Temperature 3 °F -9 °F -62 °F (1961)
Degree Days  
Heating Degree Days 56    
Moisture  
Dew Point 6 °F    
Average Humidity 82    
Maximum Humidity 92    
Minimum Humidity 67    
Precipitation  
Precipitation 0.00 in - - ()
Sea Level Pressure  
Sea Level Pressure 30.00 in    
Wind  
Wind Speed 14 mph (East)    
Max Wind Speed 26 mph    
Max Gust Speed 33 mph    
Visibility 8 miles    
Events Snow    
Averages and records for this station are not official NWS values.
T = Trace of Precipitation, MM = Missing Value Source: NWS Daily Summary

Daily Weather History Graph

Daily Weather History Graph

Search for Another Location

Airport or City:

Trip Planner

Search our weather history database for the weather conditions in past years. The results will help you decide how hot, cold, wet, or windy it might be!

Date:

Astronomy

Dec. 29, 2013 Rise Set
Actual Time 11:31 AM AKST 3:28 PM AKST
Civil Twilight 10:09 AM AKST 4:50 PM AKST
Nautical Twilight 8:58 AM AKST 6:01 PM AKST
Astronomical Twilight 7:57 AM AKST 7:02 PM AKST
Moon 7:43 AM AKST 1:57 PM AKST
Length of Visible Light 6h 41m
Length of Day
3h 56m
Waning Crescent, 10% of the Moon is Illuminated
Dec 29
Waning Crescent
Jan 1
New
Jan 7
First Quarter
Jan 15
Full
Jan 23
Last Quarter

Hourly Weather History & Observations

Time (AKST) Temp. Windchill Dew Point Humidity Pressure Visibility Wind Dir Wind Speed Gust Speed Precip Events Conditions
12:24 AM 6.8 °F -7.8 °F 3.2 °F 85% 30.01 in 3.0 mi ESE 10.4 mph - N/A Snow Light Snow
12:58 AM 7.0 °F -6.6 °F 3.9 °F 87% 30.04 in 3.0 mi ESE 9.2 mph - N/A Snow Light Snow
1:19 AM 6.8 °F -8.6 °F 5.0 °F 92% 30.01 in 2.5 mi ESE 11.5 mph - N/A Snow Light Snow
1:58 AM 7.0 °F -9.8 °F 3.9 °F 87% 30.04 in 3.0 mi East 13.8 mph - N/A Snow Light Snow
2:58 AM 7.0 °F -9.8 °F 5.0 °F 92% 30.04 in 5.0 mi ESE 13.8 mph - N/A Snow Light Snow
3:58 AM 8.1 °F -9.0 °F 3.9 °F 83% 30.04 in 9.0 mi East 15.0 mph - N/A Snow Light Snow
4:58 AM 8.1 °F -9.0 °F 5.0 °F 87% 30.03 in 8.0 mi East 15.0 mph - N/A   Overcast
5:58 AM 9.0 °F -7.9 °F 5.0 °F 84% 30.02 in 9.0 mi East 15.0 mph - N/A Snow Light Snow
6:17 AM 8.6 °F -8.9 °F 5.0 °F 85% 30.00 in 4.0 mi East 16.1 mph - N/A Snow Light Snow
6:40 AM 8.6 °F -7.0 °F 6.8 °F 92% 29.99 in 4.0 mi East 12.7 mph - N/A Snow Light Snow
6:52 AM 8.6 °F -8.3 °F 6.8 °F 92% 29.99 in 2.5 mi East 15.0 mph - N/A Snow Light Snow
6:58 AM 9.0 °F -7.3 °F 6.1 °F 88% 30.01 in 2.0 mi East 13.8 mph - N/A Snow Light Snow
7:36 AM 10.4 °F -7.2 °F 6.8 °F 85% 29.99 in 4.0 mi East 17.3 mph - N/A Snow Light Snow
7:58 AM 10.0 °F -7.1 °F 7.0 °F 87% 30.01 in 9.0 mi ESE 16.1 mph - N/A Snow Light Snow
8:49 AM 10.4 °F -6.0 °F 6.8 °F 85% 29.99 in 8.0 mi East 15.0 mph - N/A Snow Light Snow
8:58 AM 10.9 °F -6.5 °F 7.0 °F 84% 30.01 in 9.0 mi East 17.3 mph - N/A   Overcast
9:40 AM 10.4 °F -7.2 °F 6.8 °F 85% 29.99 in 10.0 mi East 17.3 mph 25.3 mph N/A   Overcast
9:58 AM 10.9 °F -5.4 °F 7.0 °F 84% 30.02 in 10.0 mi East 15.0 mph - N/A   Overcast
10:58 AM 12.9 °F -5.3 °F 8.1 °F 81% 30.02 in 10.0 mi East 20.7 mph - N/A   Overcast
11:11 AM 12.2 °F -7.5 °F 8.6 °F 85% 29.99 in 10.0 mi East 24.2 mph 27.6 mph N/A   Overcast
11:15 AM 12.2 °F -7.5 °F 8.6 °F 85% 29.99 in 10.0 mi East 24.2 mph - N/A   Overcast
11:58 AM 12.9 °F -7.3 °F 7.0 °F 77% 30.01 in 10.0 mi East 26.5 mph 32.2 mph N/A   Mostly Cloudy
12:58 PM 12.9 °F -6.1 °F 7.0 °F 77% 30.01 in 10.0 mi East 23.0 mph - N/A   Overcast
1:58 PM 12.0 °F -8.5 °F 5.0 °F 73% 30.01 in 10.0 mi East 26.5 mph 33.4 mph N/A   Overcast
2:58 PM 12.0 °F -7.3 °F 5.0 °F 73% 30.00 in 10.0 mi East 23.0 mph 27.6 mph N/A   Overcast
3:58 PM 12.9 °F -4.9 °F 5.0 °F 71% 29.99 in 9.0 mi East 19.6 mph - N/A Snow Light Snow
4:58 PM 12.0 °F -6.0 °F 5.0 °F 73% 29.99 in 9.0 mi East 19.6 mph - N/A Snow Light Snow
5:58 PM 12.0 °F -4.0 °F 5.0 °F 73% 29.98 in 9.0 mi East 15.0 mph - N/A Snow Light Snow
6:58 PM 12.0 °F -4.0 °F 5.0 °F 73% 29.97 in 10.0 mi East 15.0 mph - N/A   Overcast
7:58 PM 12.0 °F -5.6 °F 3.9 °F 70% 29.96 in 10.0 mi East 18.4 mph - N/A   Overcast
8:58 PM 12.0 °F 1.5 °F 3.0 °F 67% 29.95 in 10.0 mi ENE 6.9 mph - N/A   Partly Cloudy
9:58 PM 9.0 °F 0.6 °F 5.0 °F 84% 29.94 in 10.0 mi North 4.6 mph - N/A   Clear
10:58 PM 7.0 °F 0.1 °F 3.9 °F 87% 29.94 in 10.0 mi WSW 3.5 mph - N/A   Clear
11:58 PM 3.9 °F -5.3 °F 1.0 °F 88% 29.92 in 10.0 mi NW 4.6 mph - N/A   Clear